Find Starlink 11514

NORAD ID: 62514 Int'l Des: 2025-004 Owner: SPXS Country: US Constellation: starlink operational
又名: STARLINK-11514 [DTC] celestrak
LEOCIRCULAR

当前视图

正在加载3D地球...

About Starlink 11514

Starlink 11514 (NORAD 62514) is a starlink constellation satellite (v2 mini d2c) launched Jan 8, 2025 by SPXS of US. It operates in LEO, CIRCULAR orbit with a mass of 960.00 kg.

即将过境

Passes for default location (London). Set your location on the main map for personalized predictions.

高度历史

Loading altitude history...

两行轨道根数

1 62514U 25004D 26265.18788195 .00124163 00000-0 95337-3 0 9994
2 62514 43.0007 326.2117 0003151 287.1019 72.9503 15.70920477 98111
Epoch: Sep 22, 2026 • Age: 24 hours

当前状态

高度 358.9 km
远地点 / 近地点 N/A
速度 7.69 km/s
星下点 -16.57°S, 92.76°E
发射日期 Jan 8, 2025
运行时间 1.7 years
类型 internet

技术详情

分类 Payload
质量 960.00 kg
干质量 910.00 kg
长度 0.30 m
跨度 29.00 m
形状 ? Box + pan
制造商 SPXS
平台类型 Starlink V2MD
阶段状态 In Orbit
所有者/国家 SPXS/US

Most Searched